Starlink 33664

operational
NORAD ID: 63415 Int'l Des: 2025-065 Owner: SPXS Country: US Constellation: starlink
LEOCIRCULAR

About Starlink 33664

Description loading...

Live Position

Loading 3D Globe...

Upcoming Passes

Altitude History

Altitude vs Time

uPlot chart will show altitude changes over time

Two-Line Element Set

1 63415U 25065S 25347.01048412 .00026399 00000-0 96580-3 0 9998
2 63415 42.9987 236.5400 0001484 276.0655 84.0028 15.27566684 39585
Epoch: Dec 13, 2025 • Age: 15 hours

Current Status

Altitude 492.0 km
Velocity 7.62 km/s
Sub-Earth Point -34.23°S, 145.93°E
Launch Date Mar 31, 2025
Age 0.7 years
Type internet

Technical Details

Classification Payload
Mass 575.00 kg
Dry Mass 530.00 kg
Total Mass 575.00 kg
Length 0.30 m
Diameter 4.10 m
Span 29.00 m
Shape Box + pan
Manufacturer SPXS
Bus Type Starlink V2MO
Phase Status In Orbit
Owner/State SPXS/US

Large Constellations

Loading constellations...